Time,TemperatureF,DewpointF,PressureIn,WindDirection,WindDirectionDegrees,WindSpeedMPH,WindSpeedGustMPH,Humidity,HourlyPrecipIn,Conditions,Clouds,dailyrainin,SoftwareType,DateUTC
2013-06-04 00:03:00,63.0,51.0,-100.00,WNW,300,8.0,8.0,64,-99.99,,,-99.99,,2013-06-04 04:03:00,
2013-06-04 00:13:00,63.0,51.0,-100.00,WNW,300,8.0,8.0,64,-99.99,,,-99.99,,2013-06-04 04:13:00,
2013-06-04 00:23:00,63.0,51.0,-100.00,West,276,13.0,13.0,64,-99.99,,,-99.99,,2013-06-04 04:23:00,
2013-06-04 00:33:00,61.0,49.0,-100.00,WNW,282,13.0,13.0,64,-99.99,,,-99.99,,2013-06-04 04:33:00,
2013-06-04 00:42:00,61.0,49.0,-100.00,WNW,282,13.0,13.0,64,-99.99,,,-99.99,,2013-06-04 04:42:00,
2013-06-04 00:53:00,61.0,49.0,-100.00,WNW,282,13.0,13.0,64,-99.99,,,-99.99,,2013-06-04 04:53:00,
2013-06-04 01:03:00,61.0,49.0,-100.00,WNW,282,13.0,13.0,64,-99.99,,,-99.99,,2013-06-04 05:03:00,
2013-06-04 01:12:00,61.0,49.0,-100.00,WNW,282,13.0,13.0,64,-99.99,,,-99.99,,2013-06-04 05:12:00,
2013-06-04 01:22:00,61.0,49.0,-100.00,West,274,13.0,13.0,64,-99.99,,,-99.99,,2013-06-04 05:22:00,
2013-06-04 01:32:00,58.0,46.0,-100.00,West,274,13.0,13.0,64,-99.99,,,-99.99,,2013-06-04 05:32:00,
2013-06-04 01:42:00,58.0,46.0,-100.00,West,274,13.0,13.0,64,-99.99,,,-99.99,,2013-06-04 05:42:00,
2013-06-04 01:52:00,58.0,46.0,-100.00,West,274,13.0,13.0,64,-99.99,,,-99.99,,2013-06-04 05:52:00,
2013-06-04 02:02:00,58.0,46.0,-100.00,West,274,13.0,13.0,64,-99.99,,,-99.99,,2013-06-04 06:02:00,
2013-06-04 02:12:00,58.0,46.0,-100.00,West,274,13.0,13.0,64,-99.99,,,-99.99,,2013-06-04 06:12:00,
2013-06-04 02:22:00,58.0,46.0,-100.00,WNW,290,9.0,10.0,64,-99.99,,,-99.99,,2013-06-04 06:22:00,
2013-06-04 02:32:00,56.0,42.0,-100.00,WNW,284,9.0,-999.0,60,-99.99,,,-99.99,,2013-06-04 06:32:00,
2013-06-04 02:42:00,56.0,42.0,-100.00,WNW,284,9.0,-999.0,60,-99.99,,,-99.99,,2013-06-04 06:42:00,
2013-06-04 02:52:00,56.0,42.0,-100.00,WNW,284,9.0,-999.0,60,-99.99,,,-99.99,,2013-06-04 06:52:00,
2013-06-04 03:02:00,56.0,42.0,-100.00,WNW,284,9.0,-999.0,60,-99.99,,,-99.99,,2013-06-04 07:02:00,
2013-06-04 03:13:00,56.0,42.0,-100.00,WNW,284,9.0,-999.0,60,-99.99,,,-99.99,,2013-06-04 07:13:00,
2013-06-04 03:22:00,56.0,43.0,-100.00,West,274,9.0,-999.0,62,-99.99,,,-99.99,,2013-06-04 07:22:00,
2013-06-04 03:32:00,53.0,42.0,-100.00,WNW,290,8.0,-999.0,66,-99.99,,,-99.99,,2013-06-04 07:32:00,
2013-06-04 03:42:00,53.0,42.0,-100.00,WNW,290,8.0,-999.0,66,-99.99,,,-99.99,,2013-06-04 07:42:00,
2013-06-04 03:52:00,53.0,42.0,-100.00,WNW,290,8.0,-999.0,66,-99.99,,,-99.99,,2013-06-04 07:52:00,
2013-06-04 04:02:00,53.0,42.0,-100.00,WNW,290,8.0,-999.0,66,-99.99,,,-99.99,,2013-06-04 08:02:00,
2013-06-04 04:12:00,53.0,42.0,-100.00,NW,310,8.0,-999.0,66,-99.99,,,-99.99,,2013-06-04 08:12:00,
2013-06-04 04:22:00,53.0,42.0,-100.00,NW,310,9.0,-999.0,66,-99.99,,,-99.99,,2013-06-04 08:22:00,
2013-06-04 04:32:00,52.0,41.0,-100.00,WNW,296,9.0,-999.0,66,-99.99,,,-99.99,,2013-06-04 08:32:00,
2013-06-04 04:42:00,52.0,41.0,-100.00,WNW,296,9.0,-999.0,66,-99.99,,,-99.99,,2013-06-04 08:42:00,
2013-06-04 04:52:00,52.0,41.0,-100.00,WNW,296,9.0,-999.0,66,-99.99,,,-99.99,,2013-06-04 08:52:00,
2013-06-04 05:02:00,52.0,41.0,-100.00,WNW,296,9.0,-999.0,66,-99.99,,,-99.99,,2013-06-04 09:02:00,
2013-06-04 05:12:00,52.0,41.0,-100.00,WNW,296,9.0,-999.0,66,-99.99,,,-99.99,,2013-06-04 09:12:00,
2013-06-04 05:22:00,52.0,41.0,-100.00,ESE,105,7.0,-999.0,66,-99.99,,,-99.99,,2013-06-04 09:22:00,
2013-06-04 05:33:00,52.0,40.0,-100.00,WSW,258,6.0,6.0,64,-99.99,,,-99.99,,2013-06-04 09:33:00,
2013-06-04 05:43:00,52.0,40.0,-100.00,WSW,258,6.0,6.0,64,-99.99,,,-99.99,,2013-06-04 09:43:00,
2013-06-04 05:53:00,52.0,40.0,-100.00,WSW,258,6.0,6.0,64,-99.99,,,-99.99,,2013-06-04 09:53:00,
2013-06-04 06:03:00,52.0,40.0,-100.00,WSW,258,6.0,6.0,64,-99.99,,,-99.99,,2013-06-04 10:03:00,
2013-06-04 06:12:00,52.0,40.0,-100.00,SSW,200,6.0,6.0,64,-99.99,,,-99.99,,2013-06-04 10:12:00,
2013-06-04 06:23:00,52.0,40.0,-100.00,SSW,200,6.0,6.0,64,-99.99,,,-99.99,,2013-06-04 10:23:00,
2013-06-04 06:33:00,49.0,40.0,-100.00,WNW,282,9.0,9.0,71,-99.99,,,-99.99,,2013-06-04 10:33:00,
2013-06-04 06:42:00,49.0,40.0,-100.00,WNW,282,9.0,9.0,71,-99.99,,,-99.99,,2013-06-04 10:42:00,
2013-06-04 06:52:00,49.0,40.0,-100.00,WNW,282,9.0,9.0,71,-99.99,,,-99.99,,2013-06-04 10:52:00,
2013-06-04 07:02:00,49.0,40.0,-100.00,WNW,282,9.0,9.0,71,-99.99,,,-99.99,,2013-06-04 11:02:00,
2013-06-04 07:12:00,49.0,40.0,-100.00,WNW,282,9.0,9.0,71,-99.99,,,-99.99,,2013-06-04 11:12:00,
2013-06-04 07:22:00,49.0,40.0,-100.00,WNW,282,9.0,9.0,71,-99.99,,,-99.99,,2013-06-04 11:22:00,
2013-06-04 07:32:00,53.0,43.0,-100.00,NW,308,8.0,8.0,69,-99.99,,,-99.99,,2013-06-04 11:32:00,
2013-06-04 07:42:00,53.0,43.0,-100.00,NW,308,8.0,8.0,69,-99.99,,,-99.99,,2013-06-04 11:42:00,
2013-06-04 07:52:00,53.0,43.0,-100.00,NW,308,8.0,8.0,69,-99.99,,,-99.99,,2013-06-04 11:52:00,
2013-06-04 08:02:00,53.0,43.0,-100.00,NW,308,8.0,8.0,69,-99.99,,,-99.99,,2013-06-04 12:02:00,
2013-06-04 08:12:00,53.0,43.0,-100.00,NW,308,8.0,8.0,69,-99.99,,,-99.99,,2013-06-04 12:12:00,
2013-06-04 08:22:00,53.0,42.0,-100.00,WNW,286,10.0,10.0,66,-99.99,,,-99.99,,2013-06-04 12:22:00,
2013-06-04 08:32:00,58.0,42.0,-100.00,WNW,298,13.0,13.0,55,-99.99,,,-99.99,,2013-06-04 12:32:00,
2013-06-04 08:42:00,58.0,42.0,-100.00,WNW,298,13.0,13.0,55,-99.99,,,-99.99,,2013-06-04 12:42:00,
2013-06-04 08:52:00,58.0,42.0,-100.00,WNW,298,13.0,13.0,55,-99.99,,,-99.99,,2013-06-04 12:52:00,
2013-06-04 09:03:00,58.0,42.0,-100.00,WNW,298,13.0,13.0,55,-99.99,,,-99.99,,2013-06-04 13:03:00,
2013-06-04 09:12:00,58.0,42.0,-100.00,WNW,298,13.0,17.0,55,-99.99,,,-99.99,,2013-06-04 13:12:00,
2013-06-04 09:22:00,58.0,42.0,-100.00,WNW,298,13.0,15.0,55,-99.99,,,-99.99,,2013-06-04 13:22:00,
2013-06-04 09:32:00,61.0,41.0,-100.00,WNW,298,14.0,15.0,48,-99.99,,,-99.99,,2013-06-04 13:32:00,
2013-06-04 09:42:00,61.0,41.0,-100.00,WNW,298,14.0,15.0,48,-99.99,,,-99.99,,2013-06-04 13:42:00,
2013-06-04 09:52:00,61.0,41.0,-100.00,WNW,298,14.0,15.0,48,-99.99,,,-99.99,,2013-06-04 13:52:00,
2013-06-04 10:02:00,61.0,41.0,-100.00,WNW,298,14.0,14.0,48,-99.99,,,-99.99,,2013-06-04 14:02:00,
2013-06-04 10:12:00,61.0,41.0,-100.00,WNW,298,14.0,14.0,48,-99.99,,,-99.99,,2013-06-04 14:12:00,
2013-06-04 10:22:00,61.0,41.0,-100.00,WNW,298,14.0,14.0,48,-99.99,,,-99.99,,2013-06-04 14:22:00,
2013-06-04 10:32:00,63.0,42.0,-100.00,WNW,294,13.0,14.0,46,-99.99,,,-99.99,,2013-06-04 14:32:00,
2013-06-04 10:43:00,63.0,42.0,-100.00,WNW,294,13.0,16.0,46,-99.99,,,-99.99,,2013-06-04 14:43:00,
2013-06-04 10:52:00,63.0,42.0,-100.00,WNW,294,13.0,15.0,46,-99.99,,,-99.99,,2013-06-04 14:52:00,
2013-06-04 11:02:00,63.0,42.0,-100.00,WNW,294,13.0,15.0,46,-99.99,,,-99.99,,2013-06-04 15:02:00,
2013-06-04 11:12:00,63.0,42.0,-100.00,WNW,294,13.0,15.0,46,-99.99,,,-99.99,,2013-06-04 15:12:00,
2013-06-04 11:22:00,63.0,42.0,-100.00,NW,304,12.0,15.0,46,-99.99,,,-99.99,,2013-06-04 15:22:00,
2013-06-04 11:33:00,65.0,42.0,-100.00,WNW,302,13.0,16.0,43,-99.99,,,-99.99,,2013-06-04 15:33:00,
2013-06-04 11:42:00,65.0,42.0,-100.00,WNW,302,13.0,16.0,43,-99.99,,,-99.99,,2013-06-04 15:42:00,
2013-06-04 11:53:00,65.0,42.0,-100.00,WNW,302,13.0,16.0,43,-99.99,,,-99.99,,2013-06-04 15:53:00,
2013-06-04 12:03:00,65.0,42.0,-100.00,WNW,302,13.0,18.0,43,-99.99,,,-99.99,,2013-06-04 16:03:00,
2013-06-04 12:13:00,65.0,42.0,-100.00,WNW,302,13.0,18.0,43,-99.99,,,-99.99,,2013-06-04 16:13:00,
2013-06-04 12:23:00,65.0,43.0,-100.00,WNW,286,13.0,18.0,45,-99.99,,,-99.99,,2013-06-04 16:23:00,
2013-06-04 12:33:00,67.0,42.0,-100.00,WNW,288,13.0,13.0,40,-99.99,,,-99.99,,2013-06-04 16:33:00,
2013-06-04 12:42:00,67.0,42.0,-100.00,WNW,288,13.0,17.0,40,-99.99,,,-99.99,,2013-06-04 16:42:00,
2013-06-04 12:52:00,67.0,42.0,-100.00,WNW,288,13.0,16.0,40,-99.99,,,-99.99,,2013-06-04 16:52:00,
2013-06-04 13:03:00,67.0,42.0,-100.00,WNW,288,13.0,16.0,40,-99.99,,,-99.99,,2013-06-04 17:03:00,
2013-06-04 13:42:00,69.0,42.0,-100.00,NW,314,16.0,16.0,38,-99.99,,,-99.99,,2013-06-04 17:42:00,
2013-06-04 14:02:00,69.0,42.0,-100.00,NW,314,16.0,17.0,38,-99.99,,,-99.99,,2013-06-04 18:02:00,
2013-06-04 14:12:00,69.0,42.0,-100.00,NW,314,16.0,21.0,38,-99.99,,,-99.99,,2013-06-04 18:12:00,
2013-06-04 14:22:00,69.0,43.0,-100.00,NNW,340,17.0,24.0,39,-99.99,,,-99.99,,2013-06-04 18:22:00,
2013-06-04 14:32:00,69.0,44.0,-100.00,NW,312,17.0,24.0,41,-99.99,,,-99.99,,2013-06-04 18:32:00,
2013-06-04 14:42:00,69.0,44.0,-100.00,NW,312,17.0,22.0,41,-99.99,,,-99.99,,2013-06-04 18:42:00,
2013-06-04 15:12:00,67.0,42.0,-100.00,North,5,9.0,21.0,40,-99.99,,,-99.99,,2013-06-04 19:12:00,
2013-06-04 15:22:00,67.0,42.0,-100.00,North,5,9.0,21.0,40,-99.99,,,-99.99,,2013-06-04 19:22:00,
2013-06-04 15:33:00,68.0,43.0,-100.00,NW,310,17.0,21.0,40,-99.99,,,-99.99,,2013-06-04 19:33:00,
2013-06-04 15:42:00,68.0,43.0,-100.00,NW,310,17.0,21.0,40,-99.99,,,-99.99,,2013-06-04 19:42:00,
2013-06-04 15:52:00,68.0,43.0,-100.00,NW,310,17.0,21.0,40,-99.99,,,-99.99,,2013-06-04 19:52:00,
2013-06-04 16:03:00,68.0,43.0,-100.00,NW,310,17.0,21.0,40,-99.99,,,-99.99,,2013-06-04 20:03:00,
2013-06-04 16:13:00,68.0,43.0,-100.00,NW,310,17.0,21.0,40,-99.99,,,-99.99,,2013-06-04 20:13:00,
2013-06-04 16:22:00,68.0,43.0,-100.00,NW,324,15.0,21.0,40,-99.99,,,-99.99,,2013-06-04 20:22:00,
2013-06-04 16:32:00,68.0,43.0,-100.00,NNW,330,15.0,21.0,40,-99.99,,,-99.99,,2013-06-04 20:32:00,
2013-06-04 16:42:00,68.0,43.0,-100.00,NNW,330,15.0,21.0,40,-99.99,,,-99.99,,2013-06-04 20:42:00,
2013-06-04 16:52:00,68.0,43.0,-100.00,NNW,330,15.0,18.0,40,-99.99,,,-99.99,,2013-06-04 20:52:00,
2013-06-04 17:42:00,71.0,43.0,-100.00,NW,310,8.0,15.0,36,-99.99,,,-99.99,,2013-06-04 21:42:00,
2013-06-04 18:22:00,71.0,42.0,-100.00,WNW,300,7.0,14.0,35,-99.99,,,-99.99,,2013-06-04 22:22:00,
2013-06-04 18:52:00,70.0,41.0,-100.00,NW,325,15.0,15.0,35,-99.99,,,-99.99,,2013-06-04 22:52:00,
2013-06-04 19:02:00,70.0,41.0,-100.00,NW,325,15.0,15.0,35,-99.99,,,-99.99,,2013-06-04 23:02:00,
2013-06-04 19:12:00,70.0,41.0,-100.00,NW,325,15.0,15.0,35,-99.99,,,-99.99,,2013-06-04 23:12:00,
2013-06-04 19:22:00,70.0,41.0,-100.00,NW,325,13.0,14.0,35,-99.99,,,-99.99,,2013-06-04 23:22:00,
2013-06-04 19:32:00,68.0,39.0,-100.00,NW,314,10.0,14.0,35,-99.99,,,-99.99,,2013-06-04 23:32:00,
2013-06-04 19:42:00,68.0,39.0,-100.00,NW,314,10.0,14.0,35,-99.99,,,-99.99,,2013-06-04 23:42:00,
2013-06-04 19:52:00,68.0,39.0,-100.00,NW,314,10.0,13.0,35,-99.99,,,-99.99,,2013-06-04 23:52:00,
2013-06-04 20:02:00,68.0,39.0,-100.00,NW,314,10.0,13.0,35,-99.99,,,-99.99,,2013-06-05 00:02:00,
2013-06-04 20:12:00,68.0,39.0,-100.00,NW,314,10.0,13.0,35,-99.99,,,-99.99,,2013-06-05 00:12:00,
2013-06-04 20:22:00,68.0,39.0,-100.00,NW,316,9.0,9.0,35,-99.99,,,-99.99,,2013-06-05 00:22:00,
2013-06-04 20:42:00,65.0,49.0,-100.00,West,260,2.0,6.0,56,-99.99,,,-99.99,,2013-06-05 00:42:00,
2013-06-04 20:52:00,65.0,49.0,-100.00,West,260,2.0,3.0,56,-99.99,,,-99.99,,2013-06-05 00:52:00,
2013-06-04 21:02:00,65.0,49.0,-100.00,West,260,2.0,3.0,56,-99.99,,,-99.99,,2013-06-05 01:02:00,
2013-06-04 21:12:00,65.0,49.0,-100.00,West,260,2.0,3.0,56,-99.99,,,-99.99,,2013-06-05 01:12:00,
2013-06-04 21:22:00,65.0,49.0,-100.00,West,260,2.0,3.0,56,-99.99,,,-99.99,,2013-06-05 01:22:00,
2013-06-04 21:32:00,60.0,44.0,-100.00,NNW,334,6.0,6.0,56,-99.99,,,-99.99,,2013-06-05 01:32:00,
2013-06-04 21:42:00,60.0,44.0,-100.00,NNW,334,6.0,6.0,56,-99.99,,,-99.99,,2013-06-05 01:42:00,
2013-06-04 21:52:00,60.0,44.0,-100.00,NNW,334,6.0,6.0,56,-99.99,,,-99.99,,2013-06-05 01:52:00,
2013-06-04 22:02:00,60.0,44.0,-100.00,NNW,334,6.0,6.0,56,-99.99,,,-99.99,,2013-06-05 02:02:00,
2013-06-04 22:12:00,60.0,44.0,-100.00,NNW,334,6.0,6.0,56,-99.99,,,-99.99,,2013-06-05 02:12:00,
2013-06-04 22:22:00,60.0,44.0,-100.00,North,356,3.0,3.0,56,-99.99,,,-99.99,,2013-06-05 02:22:00,
2013-06-04 22:32:00,57.0,41.0,-100.00,NE,38,2.0,3.0,56,-99.99,,,-99.99,,2013-06-05 02:32:00,
2013-06-04 22:42:00,57.0,41.0,-100.00,NE,38,2.0,3.0,56,-99.99,,,-99.99,,2013-06-05 02:42:00,
2013-06-04 22:52:00,57.0,41.0,-100.00,NE,38,2.0,2.0,56,-99.99,,,-99.99,,2013-06-05 02:52:00,
2013-06-04 23:02:00,57.0,41.0,-100.00,NE,38,2.0,2.0,56,-99.99,,,-99.99,,2013-06-05 03:02:00,
2013-06-04 23:12:00,57.0,41.0,-100.00,NE,38,2.0,2.0,56,-99.99,,,-99.99,,2013-06-05 03:12:00,
2013-06-04 23:22:00,57.0,41.0,-100.00,North,6,1.0,3.0,56,-99.99,,,-99.99,,2013-06-05 03:22:00,
2013-06-04 23:33:00,54.0,39.0,-100.00,NE,34,2.0,3.0,56,-99.99,,,-99.99,,2013-06-05 03:33:00,
2013-06-04 23:43:00,54.0,39.0,-100.00,NE,34,2.0,3.0,56,-99.99,,,-99.99,,2013-06-05 03:43:00,
2013-06-04 23:53:00,54.0,39.0,-100.00,NE,34,2.0,3.0,56,-99.99,,,-99.99,,2013-06-05 03:53:00,